Regional Weather Roundup
Issued by NWS

Home | Current Version | Previous Version | Text Only | Print | Product List | Glossary Off
Versions: 1 2 3 4 5 6 7 8 9 10 11 12 13 14 15 16 17 18 19 20 21 22 23 24 25 26 27 28 29 30 31 32 33 34 35 36 37 38 39 40 41 42 43 44 45 46 47 48 49 50

000
ASUS43 KIND 161459
RWRIN

WEATHER ROUNDUP FOR INDIANA
NATIONAL WEATHER SERVICE INDIANAPOLIS IN
1000 AM EST MON JAN 16 2017

NOTE: "FAIR" INDICATES FEW OR NO CLOUDS BELOW 12,000 FEET WITH NO
SIGNIFICANT WEATHER AND/OR OBSTRUCTIONS TO VISIBILITY.

* - STATION DOES NOT REPORT WEATHER SUCH AS PRECIPITATION OR FOG.

+ - STATION NOT QUALITY CONTROLLED BY THE NATIONAL WEATHER SERVICE.
    USE DATA WITH CAUTION...ESPECIALLY DEWPOINT AND RELATIVE
    HUMIDITY OBSERVATIONS.

INZ001>003-010>013-019-020-161600-
NORTHWEST INDIANA

CITY           SKY/WX    TMP DP  RH WIND       PRES   REMARKS
GARY /AIRPORT/ FOG       34  32  93 VRB5      30.27F VSB 1   WCI  30
KNOX *+        CLOUDY    32  27  80 NE3       30.27R VSB 3/4
MONTICELLO +   CLOUDY    33  32  95 E6        30.24F FOG     WCI  28

$$

LMZ046-743>745-161600-
SOUTHERN LAKE MICHIGAN

STATION/POSITION TIME  TEMP    WIND        PRES    WAVE
                       AIR SEA DIR/SP/G            HT
                 (UTC) (F)     (DEG/KT/KT) (MB)    (FT)
BURNS HARBOR     1440   32      90/  7/  8 1025.4S
MICHIGAN CITY    1430   33      60/  3/  4   N/A

$$

INZ004-005-014>016-021>024-161600-
NORTH CENTRAL INDIANA

CITY           SKY/WX    TMP DP  RH WIND       PRES   REMARKS
ELKHART        CLOUDY    32  28  86 E6        30.28R HAZE    WCI  26
GOSHEN         LGT RAIN  33  29  85 NE3       30.28R FOG
SOUTH BEND     MIX PCPN  32  28  85 E6        30.28R FOG     WCI  26

$$

INZ006>009-017-018-025>027-161600-
NORTHEAST INDIANA

CITY           SKY/WX    TMP DP  RH WIND       PRES   REMARKS
ANGOLA *+      CLOUDY    30  30 100 SE6       30.28S WCI  24
FORT WAYNE     LGT RAIN  33  30  88 E8        30.28S FOG     WCI  26
KENDALLVILLE + MIX PCPN  32  31  95 E6        30.27F WCI  26

$$

INZ028-029-035-036-043>045-051>053-161600-
WEST CENTRAL INDIANA

CITY           SKY/WX    TMP DP  RH WIND       PRES   REMARKS
CRAWFORDSVL +  CLOUDY    36  36 100 SE7       30.23F FOG
LAFAYETTE      CLOUDY    36  36 100 E6        30.24S FOG
TERRE HAUTE    CLOUDY    40  38  93 SE8       30.22F FOG

$$

INZ030>032-037>040-046>048-054>057-064-065-161600-
CENTRAL INDIANA

CITY           SKY/WX    TMP DP  RH WIND       PRES   REMARKS
COLUMBUS       CLOUDY    39  39 100 SE5       30.27S FOG
INDIANAPOLIS   FOG       39  37  92 SE8       30.25S VSB 1/2
-EAGLE CREEK   CLOUDY    39  37  92 S7        30.24F FOG
KOKOMO +       CLOUDY    34  33  96 E7        30.26S FOG     WCI  28
MT COMFORT *+  CLOUDY    39  37  93 SE10      30.26S
SHELBYVILLE    CLOUDY    41  37  86 SE9       30.26R FOG

$$

INZ033-034-041-042-049-050-058-059-161600-
EAST CENTRAL INDIANA

CITY           SKY/WX    TMP DP  RH WIND       PRES   REMARKS
MUNCIE         CLOUDY    39  36  89 SE5       30.26S FOG

$$

INZ060-061-067>069-081>083-085>088-161600-
SOUTHWEST INDIANA

CITY           SKY/WX    TMP DP  RH WIND       PRES   REMARKS
EVANSVILLE     CLOUDY    45  42  89 E6        30.22R FOG
HUNTINGBURG *+ CLOUDY    45  43  93 E7        30.22F

$$

INZ062-063-066-070>080-084-089>092-161600-
SOUTH CENTRAL AND SOUTHEAST INDIANA

CITY           SKY/WX    TMP DP  RH WIND       PRES   REMARKS
BLOOMINGTON    FOG       40  38  93 SE7       30.23F VSB 3/4
MADISON *+     CLOUDY    41  39  93 E5        30.29F
SEYMOUR +      CLOUDY    43  43 100 SE6       30.27S FOG

$$





USA.gov is the U.S. government's official web portal to all federal, state and local government web resources and services.